TimeWET,TemperatureF,Dew PointF,Humidity,Sea Level PressureIn,VisibilityMPH,Wind Direction,Wind SpeedMPH,Gust SpeedMPH,PrecipitationIn,Events,Conditions,WindDirDegrees,DateUTC
12:00 AM,57,49,67,29.98,6,WSW,12.7,,,,Scattered Clouds,250,2012-11-27 00:00:00
12:00 AM,57.2,50.0,77,29.98,6.2,WSW,12.7,-,N/A,,Mostly Cloudy,250,2012-11-27 00:00:00
12:30 AM,57.2,48.2,72,29.98,6.2,West,10.4,-,N/A,,Mostly Cloudy,260,2012-11-27 00:30:00
1:00 AM,57.2,46.4,67,29.98,6.2,WSW,12.7,-,N/A,,Mostly Cloudy,250,2012-11-27 01:00:00
1:30 AM,59.0,53.6,82,29.98,6.2,WSW,10.4,-,N/A,,Mostly Cloudy,240,2012-11-27 01:30:00
2:00 AM,57.2,50.0,77,29.95,6.2,WSW,8.1,-,N/A,,Mostly Cloudy,250,2012-11-27 02:00:00
2:30 AM,55.4,50.0,82,29.95,6.2,West,5.8,-,N/A,,Overcast,270,2012-11-27 02:30:00
3:00 AM,55,51,83,29.96,6,WNW,8.1,,,,Scattered Clouds,300,2012-11-27 03:00:00
3:00 AM,55.4,51.8,88,29.95,4.3,WNW,8.1,-,N/A,,Overcast,300,2012-11-27 03:00:00
3:30 AM,53.6,46.4,77,29.95,3.1,WNW,6.9,-,N/A,,Overcast,290,2012-11-27 03:30:00
4:00 AM,53.6,46.4,77,29.95,-9999.0,NW,9.2,-,N/A,,Mostly Cloudy,310,2012-11-27 04:00:00
4:30 AM,51.8,46.4,82,29.95,3.1,WNW,8.1,-,N/A,,Overcast,300,2012-11-27 04:30:00
5:00 AM,51.8,46.4,82,29.92,5.0,WNW,6.9,-,N/A,,Mostly Cloudy,300,2012-11-27 05:00:00
5:30 AM,51.8,46.4,82,29.92,5.0,WNW,4.6,-,N/A,,Mostly Cloudy,290,2012-11-27 05:30:00
6:00 AM,52,47,76,29.95,5,West,8.1,,,,Overcast,270,2012-11-27 06:00:00
6:00 AM,51.8,46.4,82,29.92,5.0,West,9.2,-,N/A,Rain,Light Rain,270,2012-11-27 06:00:00
6:30 AM,50.0,44.6,82,29.95,1.4,NW,11.5,-,N/A,,Mostly Cloudy,310,2012-11-27 06:30:00
7:00 AM,50.0,44.6,82,29.95,5.0,NW,10.4,-,N/A,Rain,Light Rain,310,2012-11-27 07:00:00
7:30 AM,50.0,44.6,82,29.95,5.0,WNW,11.5,-,N/A,,Mostly Cloudy,300,2012-11-27 07:30:00
8:00 AM,50.0,44.6,82,29.98,6.2,WNW,9.2,-,N/A,,Mostly Cloudy,300,2012-11-27 08:00:00
8:30 AM,51.8,46.4,82,29.98,6.2,WNW,9.2,-,N/A,,Mostly Cloudy,300,2012-11-27 08:30:00
9:00 AM,49,44,76,30.01,5,WNW,9.2,,,Rain,Light Rain,300,2012-11-27 09:00:00
9:00 AM,50.0,44.6,82,29.98,3.7,WNW,9.2,-,N/A,Rain,Light Rain,290,2012-11-27 09:00:00
9:30 AM,50.0,42.8,76,30.01,3.7,West,9.2,-,N/A,,Mostly Cloudy,270,2012-11-27 09:30:00
10:00 AM,51.8,46.4,82,30.01,3.7,West,8.1,-,N/A,,Mostly Cloudy,270,2012-11-27 10:00:00
10:30 AM,50.0,42.8,76,30.01,6.2,West,10.4,-,N/A,,Mostly Cloudy,270,2012-11-27 10:30:00
11:00 AM,51.8,42.8,71,30.01,6.2,West,13.8,-,N/A,,Mostly Cloudy,260,2012-11-27 11:00:00
11:30 AM,51.8,41.0,67,29.98,6.2,West,13.8,-,N/A,,Mostly Cloudy,270,2012-11-27 11:30:00
12:00 PM,52,41,57,30.01,6,West,13.8,,,,Partly Cloudy,280,2012-11-27 12:00:00
12:00 PM,51.8,42.8,71,29.98,6.2,WNW,9.2,-,N/A,,Mostly Cloudy,290,2012-11-27 12:00:00
12:30 PM,53.6,42.8,67,29.95,6.2,WNW,12.7,-,N/A,,Mostly Cloudy,300,2012-11-27 12:30:00
1:00 PM,55.4,44.6,67,29.95,6.2,West,9.2,-,N/A,,Mostly Cloudy,270,2012-11-27 13:00:00
1:30 PM,46.4,44.6,93,29.95,0.8,NW,19.6,-,N/A,,Mostly Cloudy,310,2012-11-27 13:30:00
2:00 PM,48.2,46.4,93,29.95,-9999.0,West,17.3,-,N/A,,Mostly Cloudy,280,2012-11-27 14:00:00
2:30 PM,48.2,41.0,76,29.95,3.7,West,15.0,-,N/A,,Mostly Cloudy,270,2012-11-27 14:30:00
3:00 PM,49,41,67,29.98,5,WSW,11.5,,,,Partly Cloudy,250,2012-11-27 15:00:00
3:00 PM,50.0,41.0,71,29.95,5.0,WSW,11.5,-,N/A,,Mostly Cloudy,250,2012-11-27 15:00:00
3:30 PM,50.0,42.8,76,29.95,5.0,West,13.8,-,N/A,,Mostly Cloudy,270,2012-11-27 15:30:00
4:00 PM,51.8,42.8,71,29.95,5.0,West,15.0,-,N/A,,Mostly Cloudy,270,2012-11-27 16:00:00
4:30 PM,50.0,41.0,71,29.95,6.2,West,12.7,-,N/A,,Mostly Cloudy,270,2012-11-27 16:30:00
5:00 PM,50.0,41.0,71,29.95,5.0,West,17.3,-,N/A,,Mostly Cloudy,270,2012-11-27 17:00:00
5:30 PM,48.2,41.0,76,29.95,5.0,West,10.4,-,N/A,,Mostly Cloudy,270,2012-11-27 17:30:00
6:00 PM,47,38,63,30.00,5,West,11.5,,,,Partly Cloudy,280,2012-11-27 18:00:00
6:00 PM,48.2,37.4,66,29.95,5.0,West,11.5,-,N/A,,Mostly Cloudy,280,2012-11-27 18:00:00
6:30 PM,48.2,41.0,76,29.98,6.2,West,11.5,-,N/A,,Mostly Cloudy,260,2012-11-27 18:30:00
7:00 PM,48.2,41.0,76,29.98,6.2,West,12.7,-,N/A,,Mostly Cloudy,260,2012-11-27 19:00:00
7:30 PM,46.4,39.2,76,29.98,6.2,WSW,11.5,-,N/A,,Scattered Clouds,250,2012-11-27 19:30:00
8:00 PM,48.2,41.0,76,29.98,6.2,WSW,11.5,-,N/A,,Mostly Cloudy,240,2012-11-27 20:00:00
8:30 PM,48.2,41.0,76,29.98,6.2,WSW,13.8,-,N/A,,Mostly Cloudy,250,2012-11-27 20:30:00
9:00 PM,49,41,66,30.01,5,WSW,17.3,,,,Mostly Cloudy,250,2012-11-27 21:00:00
9:00 PM,48.2,41.0,76,29.95,6.2,WSW,18.4,-,N/A,,Mostly Cloudy,250,2012-11-27 21:00:00
9:30 PM,50.0,41.0,71,29.98,6.2,WSW,18.4,-,N/A,,Mostly Cloudy,250,2012-11-27 21:30:00
10:00 PM,51.8,42.8,71,29.98,6.2,WSW,18.4,-,N/A,,Mostly Cloudy,250,2012-11-27 22:00:00
10:30 PM,48.2,41.0,76,29.98,6.2,WSW,20.7,-,N/A,,Mostly Cloudy,250,2012-11-27 22:30:00
11:00 PM,48.2,39.2,71,29.98,6.2,WSW,20.7,-,N/A,,Mostly Cloudy,250,2012-11-27 23:00:00
11:30 PM,46.4,39.2,76,29.98,6.2,West,19.6,-,N/A,,Mostly Cloudy,260,2012-11-27 23:30:00